Explorer 11/Cluster Stage 4 - Orbit

View from above orbital plane
View from above orbital plane
View from above satellite
View from above satellite

Ground track
Ground track

The orbit data is extracted from the following two-line orbital elements,

1 00107U 61013A   13141.92091885  .00001075  00000-0  12933-3 0  8017
2 00107 028.7921 334.5293 0570777 288.1062 244.0824 14.03008853601540
Epoch (UTC): 21 May 2013 22:06:07
Eccentricity: 0.0570777
inclination: 28.7921°
perigee height: 469 km
apogee height: 1298 km
right ascension of ascending node: 334.5293°
argument of perigee: 288.1062°
revolutions per day: 14.03008853
mean anomaly at epoch: 244.0824°
orbit number at epoch: 60154

The dashed part of the orbit path shows where the satellite is in the earth's shadow,  

Developed and maintained by Chris Peat, Heavens-Above GmbH. Please read the updated FAQ before sending e-mail. Imprint. DLR